GW6982 Weather Reports


time (UTC)temp
C
wind
direction
speed
KPH
gust
KPH
rain 1hr
cm
rain 24hr
cm
rain mn
cm
humidity
%
barometer
mb
20260507150344 17 64 3.2 9.7 0.00 0.00 0.00 23 1070.1
20260507145840 16 45 8.0 16.1 0.00 0.00 0.00 23 1070.1
20260507145337 16 38 3.2 11.3 0.00 0.00 0.00 24 1069.9
20260507144834 16 48 4.8 12.9 0.00 0.00 0.00 24 1070.2
20260507144331 16 69 6.4 17.7 0.00 0.00 0.00 24 1070.1
20260507143827 15 46 1.6 11.3 0.00 0.00 0.00 25 1070.0
20260507143325 15 339 4.8 16.1 0.00 0.00 0.00 25 1070.0
20260507142821 15 60 11.3 16.1 0.00 0.00 0.00 25 1070.0
20260507142317 15 3 6.4 9.7 0.00 0.00 0.00 25 1070.0
20260507141814 15 355 9.7 12.9 0.00 0.00 0.00 25 1070.0
20260507141311 14 28 6.4 22.5 0.00 0.00 0.00 25 1070.0
20260507140807 14 2 8.0 17.7 0.00 0.00 0.00 26 1070.2
20260507140304 15 22 12.9 17.7 0.00 0.00 0.00 25 1070.3
20260507135802 14 22 4.8 12.9 0.00 0.00 0.00 25 1070.5
20260507135259 14 352 6.4 12.9 0.00 0.00 0.00 26 1070.6
20260507134755 14 49 11.3 17.7 0.00 0.00 0.00 26 1070.2
20260507134252 13 341 6.4 12.9 0.00 0.00 0.00 27 1070.5
20260507133747 13 64 3.2 12.9 0.00 0.00 0.00 27 1070.5
20260507133244 13 24 6.4 12.9 0.00 0.00 0.00 27 1070.2
20260507132742 13 336 3.2 6.4 0.00 0.00 0.00 29 1070.3
20260507132238 13 54 3.2 9.7 0.00 0.00 0.00 28 1070.3
20260507131735 13 4 14.5 16.1 0.00 0.00 0.00 30 1070.2
20260507131233 13 18 8.0 14.5 0.00 0.00 0.00 32 1070.1
20260507130729 13 68 4.8 17.7 0.00 0.00 0.00 31 1070.5
20260507130227 13 30 6.4 14.5 0.00 0.00 0.00 32 1070.5
20260507125725 13 35 14.5 20.9 0.00 0.00 0.00 33 1070.3
20260507125223 12 21 8.0 17.7 0.00 0.00 0.00 34 1070.3
20260507124719 13 337 8.0 17.7 0.00 0.00 0.00 34 1070.3
20260507124216 13 61 6.4 11.3 0.00 0.00 0.00 36 1070.5
20260507123715 12 65 11.3 16.1 0.00 0.00 0.00 35 1070.2
20260507123212 12 19 14.5 17.7 0.00 0.00 0.00 36 1070.3
20260507122707 12 0 11.3 20.9 0.00 0.00 0.00 36 1070.5
20260507122203 12 357 11.3 14.5 0.00 0.00 0.00 36 1070.0
20260507121659 12 335 12.9 20.9 0.00 0.00 0.00 36 1070.0
20260507121155 12 51 8.0 12.9 0.00 0.00 0.00 38 1070.2
20260507120651 12 324 8.0 16.1 0.00 0.00 0.00 38 1070.0
20260507120148 12 14 6.4 9.7 0.00 0.00 0.00 38 1070.0
20260507115644 12 337 3.2 14.5 0.00 0.00 0.00 38 1069.9
20260507115140 11 358 8.0 12.9 0.00 0.00 0.00 39 1070.0
20260507114636 11 0 4.8 14.5 0.00 0.00 0.00 40 1070.0
20260507114133 11 28 1.6 3.2 0.00 0.00 0.00 41 1069.9
20260507113631 11 350 3.2 4.8 0.00 0.00 0.00 41 1070.0
20260507113127 11 61 1.6 4.8 0.00 0.00 0.00 41 1069.5
20260507112626 11 13 8.0 11.3 0.00 0.00 0.00 41 1069.4
20260507112122 11 317 1.6 3.2 0.00 0.00 0.00 40 1069.2
20260507111619 12 75 1.6 3.2 0.00 0.00 0.00 39 1068.9
20260507111116 12 37 1.6 4.8 0.00 0.00 0.00 37 1069.0
20260507110612 12 5 1.6 11.3 0.00 0.00 0.00 37 1068.9
20260507110109 12 25 1.6 4.8 0.00 0.00 0.00 37 1068.6
20260507105605 11 329 4.8 6.4 0.00 0.00 0.00 39 1068.5
20260507105101 11 334 3.2 3.2 0.00 0.00 0.00 40 1068.4
20260507104559 11 330 1.6 4.8 0.00 0.00 0.00 40 1068.3
20260507104055 11 330 1.6 1.6 0.00 0.00 0.00 40 1068.5
20260507103551 12 337 4.8 4.8 0.00 0.00 0.00 38 1068.4
20260507103049 12 344 8.0 9.7 0.00 0.00 0.00 39 1068.3
20260507102545 12 330 9.7 12.9 0.00 0.00 0.00 38 1068.3
20260507102041 12 359 9.7 11.3 0.00 0.00 0.00 38 1068.4
20260507101536 12 337 9.7 11.3 0.00 0.00 0.00 38 1068.2
20260507101033 12 335 12.9 14.5 0.00 0.00 0.00 38 1068.1
20260507100531 12 346 4.8 12.9 0.00 0.00 0.00 39 1068.1
20260507100029 12 325 14.5 17.7 0.00 0.00 0.00 39 1067.8
20260507095526 12 334 9.7 17.7 0.00 0.00 0.00 40 1068.0
20260507095023 12 355 6.4 14.5 0.00 0.00 0.00 40 1068.1
20260507094519 12 323 8.0 11.3 0.00 0.00 0.00 43 1067.8
20260507094016 12 329 1.6 3.2 0.00 0.00 0.00 45 1068.1
20260507093513 12 356 1.6 6.4 0.00 0.00 0.00 45 1067.7
20260507093012 12 328 6.4 6.4 0.00 0.00 0.00 44 1067.8
20260507092508 12 325 6.4 6.4 0.00 0.00 0.00 44 1067.8
20260507092005 12 343 4.8 11.3 0.00 0.00 0.00 44 1067.6
20260507091502 12 338 6.4 9.7 0.00 0.00 0.00 45 1067.5
20260507090957 12 342 6.4 12.9 0.00 0.00 0.00 45 1067.8
20260507090453 12 304 3.2 6.4 0.00 0.00 0.00 46 1067.6
20260507085950 12 294 3.2 4.8 0.00 0.00 0.00 47 1067.6
20260507085447 12 281 3.2 4.8 0.00 0.00 0.00 47 1067.5
20260507084944 12 302 1.6 3.2 0.00 0.00 0.00 47 1067.7
20260507084441 12 324 3.2 6.4 0.00 0.00 0.00 46 1067.7
20260507083938 12 323 4.8 4.8 0.00 0.00 0.00 46 1067.4
20260507083434 12 333 8.0 11.3 0.00 0.00 0.00 46 1067.2
20260507082931 12 359 3.2 4.8 0.00 0.00 0.00 46 1067.2
20260507082427 12 349 3.2 6.4 0.00 0.00 0.00 46 1067.0
20260507081924 12 339 8.0 9.7 0.00 0.00 0.00 46 1067.0
20260507081420 12 338 8.0 12.9 0.00 0.00 0.00 47 1066.9
20260507080917 11 19 6.4 6.4 0.00 0.00 0.00 49 1066.6
20260507080413 11 238 0.0 0.0 0.00 0.00 0.00 50 1066.9
20260507075908 12 240 0.0 1.6 0.00 0.00 0.00 49 1067.0
20260507075405 12 122 1.6 4.8 0.00 0.00 0.00 49 1066.9
20260507074901 12 338 4.8 4.8 0.00 0.00 0.00 48 1066.4
20260507074358 12 68 6.4 11.3 0.00 0.00 0.00 47 1066.5
20260507073856 12 351 3.2 4.8 0.00 0.00 0.00 47 1066.4
20260507073352 12 348 4.8 12.9 0.00 0.00 0.00 47 1066.7
20260507072849 12 5 1.6 3.2 0.00 0.00 0.00 48 1066.4
20260507072347 12 51 4.8 11.3 0.00 0.00 0.00 47 1066.3
20260507071844 12 6 4.8 6.4 0.00 0.00 0.00 47 1066.3
20260507071341 12 85 3.2 6.4 0.00 0.00 0.00 46 1066.0
20260507070837 12 324 6.4 14.5 0.00 0.00 0.00 46 1065.7
20260507070335 12 14 8.0 11.3 0.00 0.00 0.00 47 1065.5
20260507065831 12 50 4.8 11.3 0.00 0.00 0.00 47 1065.6
20260507065328 13 295 6.4 14.5 0.00 0.00 0.00 46 1065.8
20260507064825 13 352 12.9 16.1 0.00 0.00 0.00 45 1065.8
20260507064324 13 0 12.9 17.7 0.00 0.00 0.00 44 1065.7
20260507063821 13 337 14.5 14.5 0.00 0.00 0.00 45 1066.0
20260507063318 13 353 4.8 16.1 0.00 0.00 0.00 44 1066.0
20260507062814 13 302 9.7 17.7 0.00 0.00 0.00 44 1066.0
20260507062312 13 358 14.5 17.7 0.00 0.00 0.00 45 1065.9
20260507061810 13 357 9.7 20.9 0.00 0.00 0.00 45 1065.6
20260507061307 12 6 14.5 17.7 0.00 0.00 0.00 46 1065.9
20260507060806 12 20 4.8 6.4 0.00 0.00 0.00 48 1066.0
20260507060302 12 61 3.2 6.4 0.00 0.00 0.00 47 1065.9
20260507055758 13 19 1.6 3.2 0.00 0.00 0.00 47 1066.0
20260507055253 13 338 3.2 6.4 0.00 0.00 0.00 45 1065.9
20260507054750 13 335 6.4 14.5 0.00 0.00 0.00 45 1065.9
20260507054247 13 350 6.4 16.1 0.00 0.00 0.00 44 1066.1
20260507053744 13 313 4.8 6.4 0.00 0.00 0.00 46 1065.8
20260507053242 13 32 1.6 9.7 0.00 0.00 0.00 45 1065.7
20260507052741 13 11 4.8 11.3 0.00 0.00 0.00 44 1065.7
20260507052236 13 336 8.0 9.7 0.00 0.00 0.00 44 1065.7
20260507051735 13 323 6.4 9.7 0.00 0.00 0.00 44 1065.5
20260507051231 14 346 6.4 11.3 0.00 0.00 0.00 43 1065.3
20260507050728 13 324 8.0 16.1 0.00 0.00 0.00 44 1065.3
20260507050225 13 336 9.7 11.3 0.00 0.00 0.00 44 1065.6
20260507045722 13 335 4.8 6.4 0.00 0.00 0.00 45 1065.2
20260507045218 13 339 3.2 6.4 0.00 0.00 0.00 46 1065.2
20260507044715 12 9 3.2 4.8 0.00 0.00 0.00 46 1065.5
20260507044212 13 14 1.6 1.6 0.00 0.00 0.00 46 1065.3
20260507043708 13 345 1.6 4.8 0.00 0.00 0.00 45 1065.1
20260507043205 13 295 3.2 4.8 0.00 0.00 0.00 45 1065.2
20260507042701 13 345 0.0 1.6 0.00 0.00 0.00 45 1065.0
20260507042156 12 284 3.2 4.8 0.00 0.00 0.00 45 1065.2
20260507041654 12 282 0.0 3.2 0.00 0.00 0.00 44 1065.0
20260507041150 12 237 0.0 0.0 0.00 0.00 0.00 45 1064.9
20260507040647 13 212 0.0 1.6 0.00 0.00 0.00 44 1064.7
20260507040143 13 142 0.0 1.6 0.00 0.00 0.00 44 1064.3
20260507035639 13 145 1.6 1.6 0.00 0.00 0.00 43 1064.7
20260507035135 14 300 0.0 0.0 0.00 0.00 0.00 41 1064.6
20260507034633 14 250 1.6 1.6 0.00 0.00 0.00 41 1064.7
20260507034130 14 67 1.6 3.2 0.00 0.00 0.00 41 1064.6
20260507033628 14 16 4.8 9.7 0.00 0.00 0.00 41 1064.7
20260507033125 15 359 9.7 11.3 0.00 0.00 0.00 40 1064.6
20260507032623 15 19 1.6 4.8 0.00 0.00 0.00 40 1064.2
20260507032118 15 341 8.0 12.9 0.00 0.00 0.00 40 1064.7
20260507031615 15 358 3.2 4.8 0.00 0.00 0.00 40 1064.6
20260507031112 15 318 8.0 14.5 0.00 0.00 0.00 40 1064.7
20260507030609 15 345 4.8 4.8 0.00 0.00 0.00 40 1064.4
20260507030107 15 15 8.0 11.3 0.00 0.00 0.00 39 1064.7
20260507025603 14 50 4.8 9.7 0.00 0.00 0.00 41 1064.3
20260507025100 15 316 6.4 6.4 0.00 0.00 0.00 41 1064.0
20260507024558 15 156 0.0 1.6 0.00 0.00 0.00 40 1063.8
20260507024055 15 98 1.6 4.8 0.00 0.00 0.00 40 1063.9
20260507023550 15 322 3.2 3.2 0.00 0.00 0.00 39 1063.8
20260507023049 15 124 3.2 9.7 0.00 0.00 0.00 39 1063.6
20260507022545 16 130 0.0 3.2 0.00 0.00 0.00 39 1063.8
20260507022040 16 135 1.6 3.2 0.00 0.00 0.00 38 1063.4
20260507021537 16 85 3.2 4.8 0.00 0.00 0.00 38 1063.8
20260507021033 16 111 0.0 0.0 0.00 0.00 0.00 37 1063.8
20260507020531 17 11 1.6 6.4 0.00 0.00 0.00 36 1063.8
20260507020027 17 78 0.0 1.6 0.00 0.00 0.00 37 1063.5
20260507015526 17 98 1.6 3.2 0.00 0.00 0.00 37 1063.4
20260507015023 17 341 6.4 9.7 0.00 0.00 0.00 36 1063.2
20260507014519 17 6 6.4 12.9 0.00 0.00 0.00 35 1063.0
20260507014015 17 283 9.7 11.3 0.00 0.00 0.00 35 1062.9
20260507013512 17 271 8.0 9.7 0.00 0.00 0.00 35 1062.7
20260507013009 17 352 0.0 4.8 0.00 0.00 0.00 35 1062.4
20260507012506 18 159 6.4 11.3 0.00 0.00 0.00 34 1062.4
20260507012002 18 125 12.9 20.9 0.00 0.00 0.00 31 1062.3
20260507011500 19 359 4.8 22.5 0.00 0.00 0.00 25 1062.1
20260507010955 21 138 9.7 17.7 0.00 0.00 0.00 16 1061.4
20260507010450 20 123 9.7 17.7 0.00 0.00 0.00 15 1061.3
20260507005947 21 15 3.2 3.2 0.00 0.00 0.00 16 1061.0
20260507005444 21 58 1.6 4.8 0.00 0.00 0.00 14 1060.8
20260507004940 22 106 0.0 4.8 0.00 0.00 0.00 13 1060.8
20260507004437 22 107 6.4 11.3 0.00 0.00 0.00 13 1060.1
20260507003935 22 64 4.8 6.4 0.00 0.00 0.00 13 1060.4
20260507003430 22 177 3.2 6.4 0.00 0.00 0.00 13 1060.4
20260507002925 22 197 3.2 17.7 0.00 0.00 0.00 13 1060.0
20260507002422 23 307 12.9 25.7 0.00 0.00 0.00 12 1060.1
20260507001919 23 42 12.9 17.7 0.00 0.00 0.00 12 1060.2
20260507001416 23 314 1.6 16.1 0.00 0.00 0.00 12 1060.4
20260507000914 22 278 40.2 53.1 0.00 0.00 0.00 12 1060.1
20260507000408 21 140 6.4 9.7 0.00 0.00 0.00 14 1060.1
20260506235905 21 121 3.2 6.4 0.00 0.00 0.00 15 1059.8
20260506235402 22 58 1.6 3.2 0.00 0.00 0.00 14 1059.8
20260506234857 21 160 0.0 0.0 0.00 0.00 0.00 14 1060.0
20260506234355 21 211 4.8 11.3 0.00 0.00 0.00 14 1059.9
20260506233853 22 239 0.0 3.2 0.00 0.00 0.00 14 1060.1
20260506233349 21 153 9.7 12.9 0.00 0.00 0.00 14 1060.0
20260506232846 21 146 4.8 9.7 0.00 0.00 0.00 15 1060.2
20260506232342 22 122 9.7 14.5 0.00 0.00 0.00 14 1060.2
20260506231838 22 161 3.2 12.9 0.00 0.00 0.00 14 1060.2
20260506231336 22 135 0.0 1.6 0.00 0.00 0.00 14 1060.7
20260506230833 22 119 6.4 11.3 0.00 0.00 0.00 14 1060.8
20260506230330 22 117 3.2 4.8 0.00 0.00 0.00 13 1060.5
20260506225826 23 343 8.0 12.9 0.00 0.00 0.00 12 1060.1
20260506225323 23 269 12.9 24.1 0.00 0.00 0.00 12 1060.7
20260506224820 22 33 19.3 27.4 0.00 0.00 0.00 13 1060.8
20260506224318 22 132 1.6 1.6 0.00 0.00 0.00 13 1060.6
20260506223814 22 282 6.4 25.7 0.00 0.00 0.00 13 1060.5
20260506223309 22 340 4.8 24.1 0.00 0.00 0.00 13 1060.7
20260506222806 22 240 9.7 17.7 0.00 0.00 0.00 12 1060.8
20260506222305 23 239 17.7 24.1 0.00 0.00 0.00 12 1060.8
20260506221800 23 235 14.5 43.5 0.00 0.00 0.00 12 1060.7
20260506221257 23 241 22.5 27.4 0.00 0.00 0.00 12 1060.7
20260506220755 23 327 12.9 54.7 0.00 0.00 0.00 12 1060.6
20260506220255 23 251 14.5 37.0 0.00 0.00 0.00 12 1060.6
20260506215752 23 264 32.2 41.8 0.00 0.00 0.00 12 1061.0
20260506215248 23 311 25.7 35.4 0.00 0.00 0.00 12 1061.0
20260506214744 23 203 3.2 33.8 0.00 0.00 0.00 12 1061.2
20260506214242 23 293 27.4 37.0 0.00 0.00 0.00 12 1061.2
20260506213740 23 255 22.5 27.4 0.00 0.00 0.00 12 1061.3
20260506213237 23 231 11.3 14.5 0.00 0.00 0.00 12 1061.2
20260506212734 23 337 6.4 14.5 0.00 0.00 0.00 12 1061.5
20260506212230 23 161 11.3 20.9 0.00 0.00 0.00 12 1061.5
20260506211725 23 279 9.7 12.9 0.00 0.00 0.00 12 1061.3
20260506211221 23 305 6.4 14.5 0.00 0.00 0.00 12 1061.2
20260506210719 24 312 16.1 30.6 0.00 0.00 0.00 11 1061.5
20260506210216 24 282 12.9 29.0 0.00 0.00 0.00 11 1061.5
20260506205713 24 268 11.3 27.4 0.00 0.00 0.00 11 1061.4
20260506205208 24 288 12.9 22.5 0.00 0.00 0.00 11 1061.4
20260506204705 25 314 14.5 17.7 0.00 0.00 0.00 11 1061.2
20260506204202 25 1 11.3 20.9 0.00 0.00 0.00 10 1061.2
20260506203700 25 313 16.1 33.8 0.00 0.00 0.00 10 1061.0
20260506203157 25 0 17.7 35.4 0.00 0.00 0.00 10 1060.9
20260506202655 25 287 19.3 35.4 0.00 0.00 0.00 10 1060.8
20260506202150 25 297 20.9 40.2 0.00 0.00 0.00 10 1060.8
20260506201648 25 262 29.0 40.2 0.00 0.00 0.00 10 1060.7
20260506201144 25 262 22.5 27.4 0.00 0.00 0.00 9 1061.0
20260506200641 25 288 8.0 20.9 0.00 0.00 0.00 9 1060.9
20260506200138 26 295 27.4 41.8 0.00 0.00 0.00 9 1060.8
20260506195635 26 306 20.9 33.8 0.00 0.00 0.00 9 1060.8
20260506195131 26 268 24.1 43.5 0.00 0.00 0.00 8 1060.5
20260506194629 26 279 17.7 22.5 0.00 0.00 0.00 8 1060.2
20260506194124 26 279 12.9 27.4 0.00 0.00 0.00 8 1060.4
20260506193623 26 298 20.9 51.5 0.00 0.00 0.00 8 1060.1
20260506193119 26 255 14.5 38.6 0.00 0.00 0.00 8 1060.1
20260506192616 26 304 16.1 35.4 0.00 0.00 0.00 8 1059.9
20260506192112 26 295 16.1 40.2 0.00 0.00 0.00 8 1060.0
20260506191609 27 287 17.7 51.5 0.00 0.00 0.00 8 1059.9
20260506191105 27 322 3.2 11.3 0.00 0.00 0.00 8 1059.7
20260506190603 27 4 12.9 27.4 0.00 0.00 0.00 7 1059.7
20260506190059 27 289 29.0 46.7 0.00 0.00 0.00 8 1059.6
20260506185556 27 292 8.0 20.9 0.00 0.00 0.00 10 1059.6
20260506185053 26 286 6.4 27.4 0.00 0.00 0.00 11 1059.9
20260506184550 24 304 4.8 6.4 0.00 0.00 0.00 44 1059.7
20260506184047 24 267 1.6 1.6 0.00 0.00 0.00 45 1059.2
20260506183543 23 160 0.0 0.0 0.00 0.00 0.00 47 1059.3
20260506183040 23 148 1.6 4.8 0.00 0.00 0.00 48 1059.4
20260506182537 23 135 1.6 4.8 0.00 0.00 0.00 49 1059.1
20260506182035 23 116 1.6 4.8 0.00 0.00 0.00 49 1059.2
20260506181532 25 109 0.0 1.6 0.00 0.00 0.00 47 1059.4
20260506181029 23 107 0.0 1.6 0.00 0.00 0.00 47 1059.4
20260506180525 24 136 1.6 3.2 0.00 0.00 0.00 47 1059.3
20260506180022 23 174 1.6 3.2 0.00 0.00 0.00 49 1059.2
20260506175519 22 194 1.6 4.8 0.00 0.00 0.00 52 1059.2
20260506175015 22 119 0.0 3.2 0.00 0.00 0.00 51 1059.8
20260506174514 23 355 1.6 4.8 0.00 0.00 0.00 50 1059.4
20260506174009 23 280 0.0 3.2 0.00 0.00 0.00 51 1059.6
20260506173508 22 140 0.0 3.2 0.00 0.00 0.00 52 1059.9
20260506173004 24 213 4.8 6.4 0.00 0.00 0.00 50 1059.9
20260506172502 22 97 1.6 3.2 0.00 0.00 0.00 50 1059.9
20260506171957 22 138 4.8 6.4 0.00 0.00 0.00 53 1059.8
20260506171455 23 277 6.4 9.7 0.00 0.00 0.00 51 1060.0
20260506170953 22 99 3.2 3.2 0.00 0.00 0.00 52 1059.8
20260506170449 22 136 0.0 4.8 0.00 0.00 0.00 55 1059.9
20260506165947 22 90 3.2 6.4 0.00 0.00 0.00 54 1059.9
20260506165446 21 106 3.2 6.4 0.00 0.00 0.00 55 1059.8
20260506164942 22 88 4.8 9.7 0.00 0.00 0.00 54 1059.9
20260506164439 21 129 4.8 4.8 0.00 0.00 0.00 55 1060.5
20260506163936 21 117 4.8 6.4 0.00 0.00 0.00 54 1060.5
20260506163431 21 100 6.4 9.7 0.00 0.00 0.00 55 1060.8
20260506162926 21 123 1.6 3.2 0.00 0.00 0.00 56 1060.6
20260506162424 22 304 3.2 4.8 0.00 0.00 0.00 53 1060.4
20260506161921 22 96 4.8 6.4 0.00 0.00 0.00 52 1060.6
20260506161420 20 114 0.0 0.0 0.00 0.00 0.00 56 1060.5
20260506160917 21 94 1.6 12.9 0.00 0.00 0.00 56 1060.6
20260506160414 21 104 9.7 11.3 0.00 0.00 0.00 57 1060.2
20260506155912 21 110 3.2 6.4 0.00 0.00 0.00 56 1060.9
20260506155409 21 203 1.6 3.2 0.00 0.00 0.00 55 1060.5
20260506153530 20 7 3.2 3.2 0.00 0.00 0.00 57 1061.3
20260506153028 21 111 1.6 6.4 0.00 0.00 0.00 56 1061.2
20260506152525 20 138 1.6 3.2 0.00 0.00 0.00 57 1061.6
20260506152023 21 160 4.8 6.4 0.00 0.00 0.00 56 1061.4
20260506151520 21 74 3.2 3.2 0.00 0.00 0.00 53 1061.7
20260506151017 21 357 3.2 4.8 0.00 0.00 0.00 55 1061.6
20260506150513 21 99 6.4 11.3 0.00 0.00 0.00 56 1061.5